2026/08/16

Sensor Date Temp./Hum.
h3-hermonville 16-08-2026 - 23:59 24.7°C / 56%
h4-hermonville 16-08-2026 - 23:58 25.5°C / 53%
h2-hermonville 16-08-2026 - 23:53 26.8°C / 51%
h1-hermonville 16-08-2026 - 23:53 22.8°C / 62.5%
h3-hermonville 16-08-2026 - 23:49 25°C / 55%
h4-hermonville 16-08-2026 - 23:48 25.7°C / 52.5%
h2-hermonville 16-08-2026 - 23:43 26.9°C / 50.5%
h1-hermonville 16-08-2026 - 23:43 23°C / 61.5%
h3-hermonville 16-08-2026 - 23:39 25°C / 55%
h2-hermonville 16-08-2026 - 23:33 27°C / 50.5%
h1-hermonville 16-08-2026 - 23:33 23.3°C / 61%
h3-hermonville 16-08-2026 - 23:29 25.2°C / 54.5%
h4-hermonville 16-08-2026 - 23:28 26°C / 52%
h1-hermonville 16-08-2026 - 23:23 23.4°C / 60.5%
h3-hermonville 16-08-2026 - 23:19 25.3°C / 54.5%
h4-hermonville 16-08-2026 - 23:18 26°C / 51.5%
h2-hermonville 16-08-2026 - 23:13 27.1°C / 50%
h1-hermonville 16-08-2026 - 23:13 23.5°C / 60%
h3-hermonville 16-08-2026 - 23:09 25.3°C / 54%
h4-hermonville 16-08-2026 - 23:08 26°C / 51.5%
h2-hermonville 16-08-2026 - 23:03 27.3°C / 49%
h1-hermonville 16-08-2026 - 23:03 23.6°C / 59.5%
h3-hermonville 16-08-2026 - 22:59 25.5°C / 53.5%
h4-hermonville 16-08-2026 - 22:58 26°C / 51.5%
h2-hermonville 16-08-2026 - 22:53 27.5°C / 48.5%
h1-hermonville 16-08-2026 - 22:53 23.7°C / 59%
h3-hermonville 16-08-2026 - 22:49 25.5°C / 53%
h4-hermonville 16-08-2026 - 22:48 26.1°C / 51%
h2-hermonville 16-08-2026 - 22:43 27.7°C / 48%
h1-hermonville 16-08-2026 - 22:43 23.9°C / 58%
h3-hermonville 16-08-2026 - 22:39 25.7°C / 52.5%
h4-hermonville 16-08-2026 - 22:38 26.2°C / 50.5%
h2-hermonville 16-08-2026 - 22:33 28°C / 48%
h1-hermonville 16-08-2026 - 22:33 24.2°C / 57%
h3-hermonville 16-08-2026 - 22:29 25.8°C / 52%
h4-hermonville 16-08-2026 - 22:28 26.4°C / 50%
h2-hermonville 16-08-2026 - 22:23 27.9°C / 47.5%
h1-hermonville 16-08-2026 - 22:23 24.2°C / 56%
h3-hermonville 16-08-2026 - 22:19 25.8°C / 51.5%
h4-hermonville 16-08-2026 - 22:18 26.4°C / 49.5%
h2-hermonville 16-08-2026 - 22:13 28.1°C / 47.5%
h1-hermonville 16-08-2026 - 22:13 24.5°C / 55.5%
h3-hermonville 16-08-2026 - 22:09 25.9°C / 51%
h4-hermonville 16-08-2026 - 22:08 26.5°C / 49%
h2-hermonville 16-08-2026 - 22:03 28.2°C / 47.5%
h1-hermonville 16-08-2026 - 22:03 24.6°C / 54.5%
h3-hermonville 16-08-2026 - 21:59 26°C / 50.5%
h4-hermonville 16-08-2026 - 21:58 26.7°C / 48.5%
h2-hermonville 16-08-2026 - 21:53 28.1°C / 46.5%
h1-hermonville 16-08-2026 - 21:53 24.7°C / 54.5%
h3-hermonville 16-08-2026 - 21:49 26.2°C / 50.5%
h4-hermonville 16-08-2026 - 21:48 26.8°C / 49%
h2-hermonville 16-08-2026 - 21:43 28.3°C / 46%
h1-hermonville 16-08-2026 - 21:43 24.8°C / 54.5%
h3-hermonville 16-08-2026 - 21:39 26.3°C / 50%
h4-hermonville 16-08-2026 - 21:38 26.9°C / 48.5%
h2-hermonville 16-08-2026 - 21:33 28.6°C / 46%
h1-hermonville 16-08-2026 - 21:33 24.8°C / 54%
h3-hermonville 16-08-2026 - 21:29 26.5°C / 49.5%
h2-hermonville 16-08-2026 - 21:23 28.7°C / 46.5%
h1-hermonville 16-08-2026 - 21:23 25.1°C / 54%
h3-hermonville 16-08-2026 - 21:19 26.6°C / 49.5%
h4-hermonville 16-08-2026 - 21:18 27.1°C / 48.5%
h2-hermonville 16-08-2026 - 21:13 28.7°C / 45.5%
h1-hermonville 16-08-2026 - 21:13 25.3°C / 53.5%
h3-hermonville 16-08-2026 - 21:09 26.7°C / 49%
h4-hermonville 16-08-2026 - 21:08 27.3°C / 48%
h2-hermonville 16-08-2026 - 21:03 28.8°C / 46%
h1-hermonville 16-08-2026 - 21:03 25.5°C / 53%
h4-hermonville 16-08-2026 - 20:58 27.3°C / 48%
h2-hermonville 16-08-2026 - 20:53 29.1°C / 45.5%
h1-hermonville 16-08-2026 - 20:53 25.8°C / 52.5%
h3-hermonville 16-08-2026 - 20:49 27.2°C / 48.5%
h4-hermonville 16-08-2026 - 20:48 27.5°C / 47.5%
h2-hermonville 16-08-2026 - 20:43 29.1°C / 45.5%
h1-hermonville 16-08-2026 - 20:43 26°C / 52%
h3-hermonville 16-08-2026 - 20:39 27.3°C / 48%
h4-hermonville 16-08-2026 - 20:38 27.4°C / 47.5%
h2-hermonville 16-08-2026 - 20:33 29.3°C / 45.5%
h1-hermonville 16-08-2026 - 20:33 26.2°C / 51.5%
h3-hermonville 16-08-2026 - 20:29 27.5°C / 47.5%
h4-hermonville 16-08-2026 - 20:28 27.6°C / 47%
h2-hermonville 16-08-2026 - 20:23 29.2°C / 45.5%
h1-hermonville 16-08-2026 - 20:23 26.4°C / 50.5%
h3-hermonville 16-08-2026 - 20:19 27.5°C / 47%
h4-hermonville 16-08-2026 - 20:18 27.7°C / 46.5%
h2-hermonville 16-08-2026 - 20:13 29.4°C / 45%
h1-hermonville 16-08-2026 - 20:13 26.7°C / 50%
h3-hermonville 16-08-2026 - 20:09 27.6°C / 47%
h4-hermonville 16-08-2026 - 20:08 27.8°C / 47%
h2-hermonville 16-08-2026 - 20:03 30.1°C / 44%
h4-hermonville 16-08-2026 - 19:58 28°C / 47%
h2-hermonville 16-08-2026 - 19:53 29.8°C / 45%
h3-hermonville 16-08-2026 - 19:49 28°C / 47.5%
h4-hermonville 16-08-2026 - 19:48 28.1°C / 46.5%
h2-hermonville 16-08-2026 - 19:43 29.9°C / 44.5%
h1-hermonville 16-08-2026 - 19:43 27.1°C / 50.5%
h3-hermonville 16-08-2026 - 19:39 28.1°C / 47%
h4-hermonville 16-08-2026 - 19:38 28.3°C / 46%
h1-hermonville 16-08-2026 - 19:33 27.4°C / 48.5%
h3-hermonville 16-08-2026 - 19:29 28.1°C / 46%
h4-hermonville 16-08-2026 - 19:28 28.4°C / 45%
h2-hermonville 16-08-2026 - 19:23 30.1°C / 43.5%
h1-hermonville 16-08-2026 - 19:23 27.4°C / 48%
h3-hermonville 16-08-2026 - 19:19 28.3°C / 45.5%
h4-hermonville 16-08-2026 - 19:18 28.5°C / 45%
h2-hermonville 16-08-2026 - 19:13 30.4°C / 43.5%
h1-hermonville 16-08-2026 - 19:13 27.6°C / 48%
h3-hermonville 16-08-2026 - 19:09 28.5°C / 46%
h4-hermonville 16-08-2026 - 19:08 28.7°C / 45.5%
h2-hermonville 16-08-2026 - 19:03 31.1°C / 42%
h1-hermonville 16-08-2026 - 19:03 27.8°C / 48%
h3-hermonville 16-08-2026 - 18:59 28.9°C / 45.5%
h4-hermonville 16-08-2026 - 18:58 28.9°C / 45%
h2-hermonville 16-08-2026 - 18:53 31.8°C / 41%
h1-hermonville 16-08-2026 - 18:53 28°C / 47.5%
h3-hermonville 16-08-2026 - 18:49 29.1°C / 45%
h4-hermonville 16-08-2026 - 18:48 29°C / 45%
h2-hermonville 16-08-2026 - 18:43 31.8°C / 41%
h1-hermonville 16-08-2026 - 18:43 28.3°C / 47%
h3-hermonville 16-08-2026 - 18:39 29°C / 45.5%
h4-hermonville 16-08-2026 - 18:38 29°C / 45%
h2-hermonville 16-08-2026 - 18:33 32.1°C / 41%
h1-hermonville 16-08-2026 - 18:33 28.3°C / 47.5%
h3-hermonville 16-08-2026 - 18:29 29.1°C / 45.5%
h2-hermonville 16-08-2026 - 18:23 32.6°C / 40%
h1-hermonville 16-08-2026 - 18:23 28.3°C / 48%
h3-hermonville 16-08-2026 - 18:19 29.1°C / 46.5%
h2-hermonville 16-08-2026 - 18:13 32.3°C / 41%
h1-hermonville 16-08-2026 - 18:13 28.2°C / 48.5%
h3-hermonville 16-08-2026 - 18:09 29.1°C / 46%
h2-hermonville 16-08-2026 - 18:03 32.3°C / 41%
h1-hermonville 16-08-2026 - 18:03 28.3°C / 49%
h3-hermonville 16-08-2026 - 17:59 29.2°C / 46.5%
h2-hermonville 16-08-2026 - 17:53 32.5°C / 40.5%
h1-hermonville 16-08-2026 - 17:53 28.6°C / 48.5%
h3-hermonville 16-08-2026 - 17:49 29.3°C / 46%
h4-hermonville 16-08-2026 - 17:48 29.2°C / 45.5%
h2-hermonville 16-08-2026 - 17:43 32.2°C / 40.5%
h1-hermonville 16-08-2026 - 17:43 28.6°C / 47.5%
h3-hermonville 16-08-2026 - 17:39 29.3°C / 45.5%
h4-hermonville 16-08-2026 - 17:38 29.4°C / 45%
h2-hermonville 16-08-2026 - 17:33 33.1°C / 38.5%
h1-hermonville 16-08-2026 - 17:33 28.7°C / 47%
h3-hermonville 16-08-2026 - 17:29 29.3°C / 45%
h4-hermonville 16-08-2026 - 17:28 29.4°C / 44.5%
h2-hermonville 16-08-2026 - 17:23 32.8°C / 40.5%
h1-hermonville 16-08-2026 - 17:23 28.7°C / 47.5%
h3-hermonville 16-08-2026 - 17:19 29.3°C / 45.5%
h4-hermonville 16-08-2026 - 17:18 29.5°C / 44%
h2-hermonville 16-08-2026 - 17:13 32.6°C / 40%
h1-hermonville 16-08-2026 - 17:13 28.7°C / 47%
h3-hermonville 16-08-2026 - 17:09 29.3°C / 45%
h4-hermonville 16-08-2026 - 17:08 29.5°C / 45%
h2-hermonville 16-08-2026 - 17:03 33.6°C / 39.5%
h1-hermonville 16-08-2026 - 17:03 28.9°C / 46.5%
h4-hermonville 16-08-2026 - 16:58 29.6°C / 46%
h2-hermonville 16-08-2026 - 16:53 33.1°C / 40.5%
h1-hermonville 16-08-2026 - 16:53 28.5°C / 49%
h3-hermonville 16-08-2026 - 16:49 29.7°C / 46%
h4-hermonville 16-08-2026 - 16:48 29.5°C / 46%
h2-hermonville 16-08-2026 - 16:43 33.5°C / 40%
h1-hermonville 16-08-2026 - 16:43 28.7°C / 48.5%
h3-hermonville 16-08-2026 - 16:39 29.7°C / 46%
h4-hermonville 16-08-2026 - 16:38 29.6°C / 46%
h2-hermonville 16-08-2026 - 16:33 32.4°C / 42%
h1-hermonville 16-08-2026 - 16:33 28.8°C / 49%
h3-hermonville 16-08-2026 - 16:29 29.5°C / 46.5%
h4-hermonville 16-08-2026 - 16:28 29.2°C / 46.5%
h1-hermonville 16-08-2026 - 16:23 28.1°C / 50.5%
h3-hermonville 16-08-2026 - 16:19 28.9°C / 48%
h1-hermonville 16-08-2026 - 16:13 28.3°C / 51.5%
h3-hermonville 16-08-2026 - 16:09 29.3°C / 47.5%
h4-hermonville 16-08-2026 - 16:08 29.2°C / 47%
h2-hermonville 16-08-2026 - 16:03 30.5°C / 45.5%
h1-hermonville 16-08-2026 - 16:03 28°C / 50.5%
h4-hermonville 16-08-2026 - 15:58 29.2°C / 46.5%
h2-hermonville 16-08-2026 - 15:53 31°C / 45.5%
h1-hermonville 16-08-2026 - 15:53 28°C / 51.5%
h3-hermonville 16-08-2026 - 15:49 29.2°C / 48%
h4-hermonville 16-08-2026 - 15:48 29.5°C / 46.5%
h2-hermonville 16-08-2026 - 15:43 30.6°C / 46.5%
h1-hermonville 16-08-2026 - 15:43 27.9°C / 51.5%
h3-hermonville 16-08-2026 - 15:39 29.2°C / 48%
h4-hermonville 16-08-2026 - 15:38 29.6°C / 47%
h2-hermonville 16-08-2026 - 15:33 30.9°C / 46%
h1-hermonville 16-08-2026 - 15:33 27.9°C / 52%
h3-hermonville 16-08-2026 - 15:29 29.1°C / 49%
h4-hermonville 16-08-2026 - 15:28 29.6°C / 47%
h2-hermonville 16-08-2026 - 15:23 30.3°C / 47%
h1-hermonville 16-08-2026 - 15:23 27.9°C / 52.5%
h3-hermonville 16-08-2026 - 15:19 28.9°C / 49.5%
h4-hermonville 16-08-2026 - 15:18 29.6°C / 47.5%
h2-hermonville 16-08-2026 - 15:13 29.9°C / 48%
h1-hermonville 16-08-2026 - 15:13 27.5°C / 53.5%
h3-hermonville 16-08-2026 - 15:09 28.6°C / 50%
h4-hermonville 16-08-2026 - 15:08 29.3°C / 47%
h2-hermonville 16-08-2026 - 15:03 29.9°C / 46.5%
h1-hermonville 16-08-2026 - 15:03 27.7°C / 52%
h4-hermonville 16-08-2026 - 14:58 29.6°C / 46.5%
h2-hermonville 16-08-2026 - 14:53 29.7°C / 47.5%
h3-hermonville 16-08-2026 - 14:49 29°C / 49.5%
h4-hermonville 16-08-2026 - 14:48 29.6°C / 47%
h2-hermonville 16-08-2026 - 14:43 28.7°C / 51%
h3-hermonville 16-08-2026 - 14:39 29°C / 49.5%
h4-hermonville 16-08-2026 - 14:38 29.3°C / 47%
h2-hermonville 16-08-2026 - 14:33 28.5°C / 51%
h1-hermonville 16-08-2026 - 14:33 27.3°C / 54%
h3-hermonville 16-08-2026 - 14:29 28.9°C / 49.5%
h4-hermonville 16-08-2026 - 14:28 29.4°C / 47%
h2-hermonville 16-08-2026 - 14:23 29.1°C / 49.5%
h1-hermonville 16-08-2026 - 14:23 27.3°C / 53.5%
h3-hermonville 16-08-2026 - 14:19 28.3°C / 50%
h4-hermonville 16-08-2026 - 14:18 29.6°C / 46%
h2-hermonville 16-08-2026 - 14:13 29.3°C / 49.5%
h1-hermonville 16-08-2026 - 14:13 27.2°C / 52.5%
h3-hermonville 16-08-2026 - 14:09 28.5°C / 49.5%
h4-hermonville 16-08-2026 - 14:08 29.2°C / 48.5%
h1-hermonville 16-08-2026 - 14:03 27°C / 56%
h4-hermonville 16-08-2026 - 13:58 29.2°C / 48%
h2-hermonville 16-08-2026 - 13:53 28.1°C / 53%
h1-hermonville 16-08-2026 - 13:53 26.7°C / 57%
h3-hermonville 16-08-2026 - 13:49 28.1°C / 52.5%
h4-hermonville 16-08-2026 - 13:48 29°C / 49%
h2-hermonville 16-08-2026 - 13:43 28.1°C / 53.5%
h1-hermonville 16-08-2026 - 13:43 26.6°C / 57.5%
h3-hermonville 16-08-2026 - 13:39 28.3°C / 52.5%
h4-hermonville 16-08-2026 - 13:38 29.1°C / 49.5%
h2-hermonville 16-08-2026 - 13:33 27.9°C / 54%
h1-hermonville 16-08-2026 - 13:33 26.3°C / 58%
h3-hermonville 16-08-2026 - 13:29 28°C / 53%
h4-hermonville 16-08-2026 - 13:28 29.2°C / 49%
h2-hermonville 16-08-2026 - 13:23 28°C / 54%
h1-hermonville 16-08-2026 - 13:23 26.1°C / 59.5%
h3-hermonville 16-08-2026 - 13:19 27.9°C / 54%
h4-hermonville 16-08-2026 - 13:18 29.4°C / 48.5%
h2-hermonville 16-08-2026 - 13:13 28°C / 54.5%
h1-hermonville 16-08-2026 - 13:13 26.2°C / 59%
h3-hermonville 16-08-2026 - 13:09 27.8°C / 54.5%
h4-hermonville 16-08-2026 - 13:08 29.5°C / 48.5%
h2-hermonville 16-08-2026 - 13:03 27.6°C / 55.5%
h1-hermonville 16-08-2026 - 13:03 25.9°C / 60.5%
h4-hermonville 16-08-2026 - 12:58 29.8°C / 48%
h2-hermonville 16-08-2026 - 12:53 27.5°C / 55.5%
h3-hermonville 16-08-2026 - 12:49 27.2°C / 55.5%
h4-hermonville 16-08-2026 - 12:48 30.2°C / 46.5%
h2-hermonville 16-08-2026 - 12:43 27.5°C / 56%
h3-hermonville 16-08-2026 - 12:39 27.1°C / 56.5%
h2-hermonville 16-08-2026 - 12:33 27.2°C / 57%
h1-hermonville 16-08-2026 - 12:33 25.1°C / 63.5%
h3-hermonville 16-08-2026 - 12:29 26.6°C / 58%
h4-hermonville 16-08-2026 - 12:28 30.5°C / 46.5%
h2-hermonville 16-08-2026 - 12:23 27°C / 57.5%
h1-hermonville 16-08-2026 - 12:23 24.8°C / 65%
h3-hermonville 16-08-2026 - 12:19 26.7°C / 58.5%
h4-hermonville 16-08-2026 - 12:18 30.8°C / 46%
h2-hermonville 16-08-2026 - 12:13 26.9°C / 58%
h1-hermonville 16-08-2026 - 12:13 24.8°C / 65%
h3-hermonville 16-08-2026 - 12:09 26°C / 61%
h4-hermonville 16-08-2026 - 12:08 31.8°C / 44%
h2-hermonville 16-08-2026 - 12:03 26.7°C / 59%
h1-hermonville 16-08-2026 - 12:03 24.4°C / 66.5%
h3-hermonville 16-08-2026 - 11:59 26.3°C / 59.5%
h4-hermonville 16-08-2026 - 11:58 33.1°C / 41.5%
h2-hermonville 16-08-2026 - 11:53 26.3°C / 59.5%
h1-hermonville 16-08-2026 - 11:53 24.3°C / 67.5%
h3-hermonville 16-08-2026 - 11:49 25.7°C / 61.5%
h4-hermonville 16-08-2026 - 11:48 33.7°C / 40%
h2-hermonville 16-08-2026 - 11:43 26.3°C / 59%
h1-hermonville 16-08-2026 - 11:43 24.2°C / 67%
h3-hermonville 16-08-2026 - 11:39 25.6°C / 61.5%
h4-hermonville 16-08-2026 - 11:38 34.9°C / 38.5%
h2-hermonville 16-08-2026 - 11:33 26.1°C / 60.5%
h1-hermonville 16-08-2026 - 11:33 23.7°C / 69%
h3-hermonville 16-08-2026 - 11:29 25.6°C / 62%
h4-hermonville 16-08-2026 - 11:28 34.9°C / 38.5%
h2-hermonville 16-08-2026 - 11:23 25.8°C / 61%
h1-hermonville 16-08-2026 - 11:23 23.3°C / 70.5%
h3-hermonville 16-08-2026 - 11:19 25.1°C / 64%
h4-hermonville 16-08-2026 - 11:18 34.7°C / 39%
h2-hermonville 16-08-2026 - 11:13 25.6°C / 62%
h1-hermonville 16-08-2026 - 11:13 23.2°C / 71.5%
h3-hermonville 16-08-2026 - 11:09 24.7°C / 64.5%
h4-hermonville 16-08-2026 - 11:08 35.4°C / 38%
h1-hermonville 16-08-2026 - 11:03 23°C / 71.5%
h4-hermonville 16-08-2026 - 10:58 34.8°C / 39.5%
h2-hermonville 16-08-2026 - 10:53 25.4°C / 63%
h1-hermonville 16-08-2026 - 10:53 22.8°C / 72.5%
h3-hermonville 16-08-2026 - 10:49 24.8°C / 65%
h4-hermonville 16-08-2026 - 10:48 34.1°C / 41%
h2-hermonville 16-08-2026 - 10:43 25.1°C / 64%
h1-hermonville 16-08-2026 - 10:43 22.4°C / 74.5%
h3-hermonville 16-08-2026 - 10:39 24.1°C / 67%
h4-hermonville 16-08-2026 - 10:38 33.5°C / 41.5%
h2-hermonville 16-08-2026 - 10:33 25.1°C / 63.5%
h1-hermonville 16-08-2026 - 10:33 21.8°C / 76.5%
h3-hermonville 16-08-2026 - 10:30 23.8°C / 68%
h2-hermonville 16-08-2026 - 10:23 24.7°C / 64.5%
h1-hermonville 16-08-2026 - 10:23 21.7°C / 77.5%
h3-hermonville 16-08-2026 - 10:20 23.5°C / 69%
h4-hermonville 16-08-2026 - 10:18 32.8°C / 43%
h2-hermonville 16-08-2026 - 10:13 24.8°C / 63.5%
h1-hermonville 16-08-2026 - 10:13 21.3°C / 78%
h3-hermonville 16-08-2026 - 10:10 23.3°C / 69.5%
h4-hermonville 16-08-2026 - 10:08 32.9°C / 42.5%
h2-hermonville 16-08-2026 - 10:03 25°C / 63%
h1-hermonville 16-08-2026 - 10:03 21.3°C / 78.5%
h3-hermonville 16-08-2026 - 10:00 23.2°C / 69.5%
h4-hermonville 16-08-2026 - 09:58 32.4°C / 43.5%
h2-hermonville 16-08-2026 - 09:53 24.7°C / 64.5%
h1-hermonville 16-08-2026 - 09:53 21.3°C / 78%
h3-hermonville 16-08-2026 - 09:50 23.1°C / 70.5%
h4-hermonville 16-08-2026 - 09:48 31.9°C / 45%
h2-hermonville 16-08-2026 - 09:44 24.5°C / 64.5%
h1-hermonville 16-08-2026 - 09:43 21.1°C / 79.5%
h3-hermonville 16-08-2026 - 09:40 22.7°C / 71.5%
h4-hermonville 16-08-2026 - 09:38 31.2°C / 46%
h2-hermonville 16-08-2026 - 09:34 24.3°C / 64.5%
h1-hermonville 16-08-2026 - 09:33 21°C / 79%
h3-hermonville 16-08-2026 - 09:30 22.7°C / 71%
h4-hermonville 16-08-2026 - 09:28 30.8°C / 47%
h2-hermonville 16-08-2026 - 09:23 24.2°C / 65.5%
h1-hermonville 16-08-2026 - 09:23 20.7°C / 80.5%
h3-hermonville 16-08-2026 - 09:20 22.5°C / 71.5%
h4-hermonville 16-08-2026 - 09:18 30.3°C / 47.5%
h2-hermonville 16-08-2026 - 09:14 24°C / 65%
h1-hermonville 16-08-2026 - 09:13 20.6°C / 80.5%
h3-hermonville 16-08-2026 - 09:10 22.5°C / 71.5%
h4-hermonville 16-08-2026 - 09:08 29.3°C / 50.5%
h2-hermonville 16-08-2026 - 09:03 24°C / 65.5%
h1-hermonville 16-08-2026 - 09:03 20.6°C / 80%
h3-hermonville 16-08-2026 - 09:00 22.4°C / 71%
h4-hermonville 16-08-2026 - 08:58 28.1°C / 53%
h2-hermonville 16-08-2026 - 08:54 23.9°C / 66%
h1-hermonville 16-08-2026 - 08:53 20.4°C / 80%
h3-hermonville 16-08-2026 - 08:50 22.5°C / 70%
h4-hermonville 16-08-2026 - 08:48 26.1°C / 57%
h2-hermonville 16-08-2026 - 08:43 23.5°C / 66.5%
h1-hermonville 16-08-2026 - 08:43 20.5°C / 79.5%
h3-hermonville 16-08-2026 - 08:40 22.4°C / 70.5%
h4-hermonville 16-08-2026 - 08:38 27°C / 54.5%
h2-hermonville 16-08-2026 - 08:33 23.4°C / 67%
h3-hermonville 16-08-2026 - 08:30 22.7°C / 69.5%
h4-hermonville 16-08-2026 - 08:28 26.7°C / 55.5%
h2-hermonville 16-08-2026 - 08:23 22.7°C / 69%
h1-hermonville 16-08-2026 - 08:23 20.5°C / 79%
h3-hermonville 16-08-2026 - 08:20 22.5°C / 69.5%
h4-hermonville 16-08-2026 - 08:18 24.8°C / 60.5%
h1-hermonville 16-08-2026 - 08:13 20.3°C / 79%
h3-hermonville 16-08-2026 - 08:10 22.4°C / 69.5%
h4-hermonville 16-08-2026 - 08:08 24.6°C / 61%
h2-hermonville 16-08-2026 - 08:03 23.1°C / 67.5%
h1-hermonville 16-08-2026 - 08:03 20.4°C / 78.5%
h3-hermonville 16-08-2026 - 08:00 22.9°C / 67.5%
h4-hermonville 16-08-2026 - 07:58 24°C / 62.5%
h1-hermonville 16-08-2026 - 07:53 20.9°C / 76.5%
h3-hermonville 16-08-2026 - 07:50 22.7°C / 68%
h4-hermonville 16-08-2026 - 07:48 24.4°C / 61.5%
h2-hermonville 16-08-2026 - 07:43 21.9°C / 71.5%
h1-hermonville 16-08-2026 - 07:43 21°C / 75.5%
h3-hermonville 16-08-2026 - 07:40 22°C / 70%
h4-hermonville 16-08-2026 - 07:38 23.8°C / 63%
h2-hermonville 16-08-2026 - 07:33 22.1°C / 70.5%
h1-hermonville 16-08-2026 - 07:33 20.6°C / 77%
h3-hermonville 16-08-2026 - 07:30 22.5°C / 68.5%
h4-hermonville 16-08-2026 - 07:28 24.1°C / 62.5%
h1-hermonville 16-08-2026 - 07:23 20.3°C / 77.5%
h3-hermonville 16-08-2026 - 07:20 22.5°C / 67.5%
h4-hermonville 16-08-2026 - 07:18 24°C / 61.5%
h2-hermonville 16-08-2026 - 07:13 23.1°C / 67%
h1-hermonville 16-08-2026 - 07:13 20.1°C / 78.5%
h3-hermonville 16-08-2026 - 07:10 22.6°C / 67.5%
h4-hermonville 16-08-2026 - 07:08 23.9°C / 62.5%
h2-hermonville 16-08-2026 - 07:03 23.1°C / 66.5%
h1-hermonville 16-08-2026 - 07:03 20.1°C / 78.5%
h3-hermonville 16-08-2026 - 07:00 22.8°C / 66.5%
h4-hermonville 16-08-2026 - 06:58 23.8°C / 62%
h2-hermonville 16-08-2026 - 06:53 23.4°C / 65.5%
h1-hermonville 16-08-2026 - 06:53 20.2°C / 78%
h3-hermonville 16-08-2026 - 06:50 22.8°C / 66.5%
h4-hermonville 16-08-2026 - 06:48 23.9°C / 62%
h2-hermonville 16-08-2026 - 06:43 23.1°C / 66.5%
h1-hermonville 16-08-2026 - 06:43 20.4°C / 77%
h3-hermonville 16-08-2026 - 06:40 23.2°C / 65.5%
h4-hermonville 16-08-2026 - 06:38 24.1°C / 61.5%
h2-hermonville 16-08-2026 - 06:33 23.4°C / 65.5%
h1-hermonville 16-08-2026 - 06:33 20.7°C / 77%
h3-hermonville 16-08-2026 - 06:30 23.2°C / 65.5%
h4-hermonville 16-08-2026 - 06:28 24.4°C / 61%
h2-hermonville 16-08-2026 - 06:23 23.4°C / 65.5%
h1-hermonville 16-08-2026 - 06:23 20.6°C / 76.5%
h3-hermonville 16-08-2026 - 06:20 23.2°C / 65.5%
h4-hermonville 16-08-2026 - 06:18 24.2°C / 61%
h2-hermonville 16-08-2026 - 06:13 23.2°C / 66.5%
h1-hermonville 16-08-2026 - 06:13 20.7°C / 76%
h3-hermonville 16-08-2026 - 06:10 23.1°C / 66%
h4-hermonville 16-08-2026 - 06:08 24.5°C / 60%
h2-hermonville 16-08-2026 - 06:03 23.1°C / 66.5%
h1-hermonville 16-08-2026 - 06:03 20.7°C / 76%
h3-hermonville 16-08-2026 - 06:00 23°C / 66.5%
h4-hermonville 16-08-2026 - 05:58 24.4°C / 60.5%
h2-hermonville 16-08-2026 - 05:53 22.8°C / 67.5%
h1-hermonville 16-08-2026 - 05:53 20.8°C / 75.5%
h3-hermonville 16-08-2026 - 05:50 23°C / 66%
h4-hermonville 16-08-2026 - 05:48 24.5°C / 60%
h2-hermonville 16-08-2026 - 05:43 23.1°C / 66.5%
h1-hermonville 16-08-2026 - 05:43 20.9°C / 75%
h3-hermonville 16-08-2026 - 05:40 23.2°C / 66%
h4-hermonville 16-08-2026 - 05:38 24.4°C / 60.5%
h2-hermonville 16-08-2026 - 05:33 23.2°C / 66%
h1-hermonville 16-08-2026 - 05:33 21.2°C / 74.5%
h3-hermonville 16-08-2026 - 05:30 23.4°C / 65%
h4-hermonville 16-08-2026 - 05:28 24.8°C / 60%
h2-hermonville 16-08-2026 - 05:23 23.5°C / 65.5%
h1-hermonville 16-08-2026 - 05:23 21.2°C / 74%
h3-hermonville 16-08-2026 - 05:20 23.5°C / 65.5%
h4-hermonville 16-08-2026 - 05:18 24.7°C / 60%
h2-hermonville 16-08-2026 - 05:13 23.9°C / 64.5%
h1-hermonville 16-08-2026 - 05:13 21.4°C / 73.5%
h3-hermonville 16-08-2026 - 05:10 23.7°C / 64.5%
h4-hermonville 16-08-2026 - 05:08 25.1°C / 58%
h2-hermonville 16-08-2026 - 05:03 24.2°C / 63%
h1-hermonville 16-08-2026 - 05:03 21.6°C / 73%
h4-hermonville 16-08-2026 - 04:58 25.3°C / 58%
h2-hermonville 16-08-2026 - 04:53 24°C / 63.5%
h1-hermonville 16-08-2026 - 04:53 21.8°C / 72.5%
h3-hermonville 16-08-2026 - 04:50 23.9°C / 63.5%
h4-hermonville 16-08-2026 - 04:48 25.1°C / 58.5%
h2-hermonville 16-08-2026 - 04:43 24.4°C / 62.5%
h1-hermonville 16-08-2026 - 04:43 21.9°C / 72%
h3-hermonville 16-08-2026 - 04:40 23.9°C / 63.5%
h2-hermonville 16-08-2026 - 04:33 24.7°C / 61.5%
h1-hermonville 16-08-2026 - 04:33 22°C / 71.5%
h3-hermonville 16-08-2026 - 04:30 24.1°C / 63%
h4-hermonville 16-08-2026 - 04:28 25.5°C / 57.5%
h1-hermonville 16-08-2026 - 04:23 22.1°C / 71.5%
h3-hermonville 16-08-2026 - 04:20 24°C / 63%
h4-hermonville 16-08-2026 - 04:18 25.5°C / 57%
h2-hermonville 16-08-2026 - 04:13 25.3°C / 60%
h1-hermonville 16-08-2026 - 04:13 22.2°C / 71%
h3-hermonville 16-08-2026 - 04:10 24.4°C / 62.5%
h4-hermonville 16-08-2026 - 04:08 25.7°C / 57.5%
h2-hermonville 16-08-2026 - 04:03 25.4°C / 59.5%
h1-hermonville 16-08-2026 - 04:03 22.2°C / 71%
h3-hermonville 16-08-2026 - 04:00 24.4°C / 62%
h4-hermonville 16-08-2026 - 03:58 25.8°C / 57%
h2-hermonville 16-08-2026 - 03:53 25.6°C / 59%
h1-hermonville 16-08-2026 - 03:53 22.4°C / 70.5%
h3-hermonville 16-08-2026 - 03:50 24.7°C / 61%
h4-hermonville 16-08-2026 - 03:48 25.8°C / 56%
h2-hermonville 16-08-2026 - 03:44 25.7°C / 58%
h1-hermonville 16-08-2026 - 03:43 22.5°C / 70%
h3-hermonville 16-08-2026 - 03:40 24.8°C / 60.5%
h4-hermonville 16-08-2026 - 03:38 25.9°C / 57%
h2-hermonville 16-08-2026 - 03:34 25.7°C / 58%
h1-hermonville 16-08-2026 - 03:33 22.6°C / 69.5%
h3-hermonville 16-08-2026 - 03:30 24.8°C / 60%
h4-hermonville 16-08-2026 - 03:28 26°C / 56%
h2-hermonville 16-08-2026 - 03:24 25.8°C / 57.5%
h1-hermonville 16-08-2026 - 03:23 22.8°C / 68.5%
h3-hermonville 16-08-2026 - 03:20 25°C / 59.5%
h4-hermonville 16-08-2026 - 03:18 26°C / 55%
h2-hermonville 16-08-2026 - 03:14 25.8°C / 58%
h1-hermonville 16-08-2026 - 03:13 22.9°C / 67.5%
h3-hermonville 16-08-2026 - 03:10 25°C / 59.5%
h4-hermonville 16-08-2026 - 03:08 26.3°C / 54.5%
h2-hermonville 16-08-2026 - 03:04 25.5°C / 58.5%
h1-hermonville 16-08-2026 - 03:03 23.1°C / 66.5%
h3-hermonville 16-08-2026 - 03:00 25.1°C / 59%
h4-hermonville 16-08-2026 - 02:58 26.2°C / 54.5%
h2-hermonville 16-08-2026 - 02:54 25.8°C / 57%
h1-hermonville 16-08-2026 - 02:53 23.1°C / 66%
h3-hermonville 16-08-2026 - 02:50 25.1°C / 58.5%
h4-hermonville 16-08-2026 - 02:48 26.2°C / 54%
h2-hermonville 16-08-2026 - 02:44 26.3°C / 55.5%
h1-hermonville 16-08-2026 - 02:43 23.3°C / 65%
h3-hermonville 16-08-2026 - 02:40 25.2°C / 58%
h4-hermonville 16-08-2026 - 02:38 26.3°C / 54%
h2-hermonville 16-08-2026 - 02:34 26.7°C / 54%
h1-hermonville 16-08-2026 - 02:33 23.4°C / 64.5%
h3-hermonville 16-08-2026 - 02:30 25.2°C / 57.5%
h4-hermonville 16-08-2026 - 02:28 26.4°C / 53.5%
h2-hermonville 16-08-2026 - 02:24 26.3°C / 55%
h1-hermonville 16-08-2026 - 02:23 23.6°C / 63.5%
h3-hermonville 16-08-2026 - 02:20 25.2°C / 57.5%
h4-hermonville 16-08-2026 - 02:18 26.4°C / 53%
h2-hermonville 16-08-2026 - 02:14 27.3°C / 51.5%
h1-hermonville 16-08-2026 - 02:13 23.6°C / 63%
h3-hermonville 16-08-2026 - 02:10 25.4°C / 57%
h4-hermonville 16-08-2026 - 02:08 26.4°C / 52.5%
h2-hermonville 16-08-2026 - 02:04 27.7°C / 51%
h1-hermonville 16-08-2026 - 02:03 23.9°C / 62%
h4-hermonville 16-08-2026 - 01:58 26.5°C / 52%
h2-hermonville 16-08-2026 - 01:54 27.8°C / 50%
h1-hermonville 16-08-2026 - 01:53 24°C / 61.5%
h3-hermonville 16-08-2026 - 01:50 25.6°C / 55.5%
h4-hermonville 16-08-2026 - 01:48 26.8°C / 52%
h2-hermonville 16-08-2026 - 01:44 27.7°C / 50%
h1-hermonville 16-08-2026 - 01:43 24.2°C / 60.5%
h3-hermonville 16-08-2026 - 01:40 25.8°C / 55.5%
h4-hermonville 16-08-2026 - 01:38 26.9°C / 51.5%
h2-hermonville 16-08-2026 - 01:34 27.8°C / 49.5%
h1-hermonville 16-08-2026 - 01:33 24.5°C / 60%
h3-hermonville 16-08-2026 - 01:30 25.9°C / 55%
h4-hermonville 16-08-2026 - 01:28 27°C / 51%
h2-hermonville 16-08-2026 - 01:24 28°C / 49.5%
h1-hermonville 16-08-2026 - 01:23 24.6°C / 59%
h3-hermonville 16-08-2026 - 01:20 26°C / 54.5%
h4-hermonville 16-08-2026 - 01:18 27.1°C / 50.5%
h2-hermonville 16-08-2026 - 01:14 28.1°C / 49.5%
h3-hermonville 16-08-2026 - 01:10 26.3°C / 53.5%
h4-hermonville 16-08-2026 - 01:08 27.4°C / 50%
h1-hermonville 16-08-2026 - 01:03 25.4°C / 57.5%
h4-hermonville 16-08-2026 - 00:58 27.6°C / 50%
h2-hermonville 16-08-2026 - 00:54 28.2°C / 49%
h1-hermonville 16-08-2026 - 00:53 25.5°C / 56.5%
h3-hermonville 16-08-2026 - 00:50 26.7°C / 52.5%
h4-hermonville 16-08-2026 - 00:48 27.7°C / 49.5%
h2-hermonville 16-08-2026 - 00:44 28.4°C / 48.5%
h1-hermonville 16-08-2026 - 00:43 26°C / 55%
h3-hermonville 16-08-2026 - 00:40 26.9°C / 52%
h4-hermonville 16-08-2026 - 00:38 28°C / 49%
h2-hermonville 16-08-2026 - 00:34 28.5°C / 48.5%
h1-hermonville 16-08-2026 - 00:33 26.5°C / 54%
h3-hermonville 16-08-2026 - 00:30 27.1°C / 51.5%
h4-hermonville 16-08-2026 - 00:28 28.1°C / 48%
h2-hermonville 16-08-2026 - 00:24 28.5°C / 47.5%
h1-hermonville 16-08-2026 - 00:23 26.6°C / 53%
h3-hermonville 16-08-2026 - 00:20 27.5°C / 50.5%
h4-hermonville 16-08-2026 - 00:18 28.2°C / 47.5%
h2-hermonville 16-08-2026 - 00:14 28.7°C / 47%
h1-hermonville 16-08-2026 - 00:13 26.8°C / 52%
h3-hermonville 16-08-2026 - 00:10 27.6°C / 49.5%
h4-hermonville 16-08-2026 - 00:08 28.3°C / 46.5%
h2-hermonville 16-08-2026 - 00:04 28.7°C / 46%
h1-hermonville 16-08-2026 - 00:03 27.1°C / 50.5%